Location: Bégole
(43.1574°N, 0.3291°E)
Time: 00:40:28
(UTC+00:00)

deb Delta 89 - Pass Details

Date: 01 March 2024
Orbit: 714 x 2021 km, 97.5° (Epoch: 13 April)

Event Time Altitude Azimuth Distance (km) Brightness Sun altitude
Rises 00:16:26 0° 20° (NNE) 5,479 ? -54.3°
Reaches altitude 10° 00:21:36 10° 38° (NE) 4,408 ? -54.2°
Enters shadow 00:27:41 18° 73° (ENE) 3,657 ? -54.1°
